Orbital Elements at Epoch 2459200.5 (2020-Dec-17.0) TDB
Reference: JPL 19 (heliocentric ecliptic J2000)
Element | Value | Uncertainty (1-sigma) | Units |
e | .2596966727775246 | 3.048e-08 | |
a | 2.266740698831058 | 8.7397e-09 | au |
q | 1.678075681295232 | 6.8538e-08 | au |
i | 22.67006614911022 | 7.4334e-06 | deg |
node | 237.9559881560749 | 9.0623e-06 | deg |
peri | 86.55459661008349 | 2.0231e-05 | deg |
M | 179.6460035558278 | 1.6219e-05 | deg |
tp | 2458578.462954576865 (2019-Apr-04.96295458) | 5.4415e-05 | TDB |
period | 1246.525566502445 3.41 | 7.2092e-06 1.974e-08 | d yr |
n | .2888027407332714 | 1.6703e-09 | deg/d |
Q | 2.855405716366884 | 1.1009e-08 | au |
|
| | Orbit Determination Parameters
Additional Information
|